Time,TemperatureF,DewpointF,PressureIn,WindDirection,WindDirectionDegrees,WindSpeedMPH,WindSpeedGustMPH,Humidity,HourlyPrecipIn,Conditions,Clouds,dailyrainin,SoftwareType,DateUTC
2013-01-09 00:02:00,33.0,27.0,29.84,SW,236,1.0,3.0,78,0.00,,,0.01,,2013-01-09 06:02:00,
2013-01-09 00:12:00,33.0,27.0,29.84,SW,236,1.0,3.0,78,0.00,,,0.01,,2013-01-09 06:12:00,
2013-01-09 00:22:00,33.0,27.0,29.85,WSW,251,1.0,3.0,78,0.00,,,0.01,,2013-01-09 06:22:00,
2013-01-09 00:32:00,33.0,27.0,29.85,WSW,243,2.0,3.0,78,0.00,,,0.01,,2013-01-09 06:32:00,
2013-01-09 00:42:00,33.0,27.0,29.85,WSW,243,2.0,3.0,78,0.00,,,0.01,,2013-01-09 06:42:00,
2013-01-09 00:52:00,32.0,26.0,29.85,West,260,2.0,3.0,79,0.00,,,0.01,,2013-01-09 06:52:00,
2013-01-09 01:02:00,32.0,27.0,29.85,WSW,240,1.0,5.0,80,0.00,,,0.01,,2013-01-09 07:02:00,
2013-01-09 01:12:00,32.0,27.0,29.85,WSW,240,1.0,5.0,80,0.00,,,0.01,,2013-01-09 07:12:00,
2013-01-09 01:22:00,32.0,27.0,29.86,WSW,240,2.0,5.0,80,0.00,,,0.01,,2013-01-09 07:22:00,
2013-01-09 01:32:00,32.0,27.0,29.86,SW,234,2.0,3.0,80,0.00,,,0.01,,2013-01-09 07:32:00,
2013-01-09 01:42:00,32.0,27.0,29.86,SW,234,2.0,3.0,80,0.00,,,0.01,,2013-01-09 07:42:00,
2013-01-09 01:52:00,32.0,27.0,29.87,WSW,255,1.0,3.0,81,0.00,,,0.01,,2013-01-09 07:52:00,
2013-01-09 02:02:00,31.0,26.0,29.88,SW,236,1.0,3.0,81,0.00,,,0.01,,2013-01-09 08:02:00,
2013-01-09 02:12:00,31.0,26.0,29.88,SW,236,1.0,3.0,81,0.00,,,0.01,,2013-01-09 08:12:00,
2013-01-09 02:22:00,32.0,27.0,29.88,WSW,252,1.0,3.0,81,0.00,,,0.01,,2013-01-09 08:22:00,
2013-01-09 02:32:00,31.0,26.0,29.88,SW,225,2.0,3.0,81,0.00,,,0.01,,2013-01-09 08:32:00,
2013-01-09 02:42:00,31.0,26.0,29.88,SW,225,2.0,3.0,81,0.00,,,0.01,,2013-01-09 08:42:00,
2013-01-09 02:53:00,31.0,26.0,29.90,WSW,246,2.0,3.0,82,0.00,,,0.01,,2013-01-09 08:53:00,
2013-01-09 03:02:00,31.0,26.0,29.89,SW,225,2.0,3.0,81,0.00,,,0.01,,2013-01-09 09:02:00,
2013-01-09 03:12:00,31.0,26.0,29.89,SW,225,2.0,3.0,81,0.00,,,0.01,,2013-01-09 09:12:00,
2013-01-09 03:22:00,31.0,26.0,29.89,SSW,207,1.0,3.0,81,0.00,,,0.01,,2013-01-09 09:22:00,
2013-01-09 03:32:00,31.0,26.0,29.89,WSW,248,2.0,3.0,81,0.00,,,0.01,,2013-01-09 09:32:00,
2013-01-09 03:42:00,31.0,26.0,29.89,WSW,248,2.0,3.0,81,0.00,,,0.01,,2013-01-09 09:42:00,
2013-01-09 03:53:00,31.0,26.0,29.89,SW,231,1.0,2.0,80,0.00,,,0.01,,2013-01-09 09:53:00,
2013-01-09 04:02:00,31.0,26.0,29.89,SW,232,1.0,2.0,81,0.00,,,0.01,,2013-01-09 10:02:00,
2013-01-09 04:12:00,31.0,26.0,29.89,SW,232,1.0,2.0,81,0.00,,,0.01,,2013-01-09 10:12:00,
2013-01-09 04:22:00,31.0,26.0,29.90,West,260,1.0,3.0,81,0.00,,,0.01,,2013-01-09 10:22:00,
2013-01-09 04:32:00,31.0,26.0,29.90,WSW,246,1.0,3.0,80,0.00,,,0.01,,2013-01-09 10:32:00,
2013-01-09 04:42:00,31.0,26.0,29.90,WSW,246,1.0,3.0,80,0.00,,,0.01,,2013-01-09 10:42:00,
2013-01-09 04:52:00,31.0,26.0,29.90,WSW,238,1.0,3.0,80,0.00,,,0.01,,2013-01-09 10:52:00,
2013-01-09 05:02:00,31.0,26.0,29.90,WSW,244,2.0,3.0,80,0.00,,,0.01,,2013-01-09 11:02:00,
2013-01-09 05:12:00,31.0,26.0,29.90,WSW,244,2.0,3.0,80,0.00,,,0.01,,2013-01-09 11:12:00,
2013-01-09 05:22:00,31.0,26.0,29.91,SW,234,1.0,3.0,80,0.00,,,0.01,,2013-01-09 11:22:00,
2013-01-09 05:32:00,31.0,25.0,29.91,WSW,251,1.0,3.0,79,0.00,,,0.01,,2013-01-09 11:32:00,
2013-01-09 05:42:00,31.0,25.0,29.91,WSW,251,1.0,3.0,79,0.00,,,0.01,,2013-01-09 11:42:00,
2013-01-09 05:52:00,31.0,26.0,29.91,WSW,246,1.0,6.0,80,0.00,,,0.01,,2013-01-09 11:52:00,
2013-01-09 06:03:00,32.0,26.0,29.92,WSW,244,2.0,8.0,79,0.00,,,0.01,,2013-01-09 12:03:00,
2013-01-09 06:12:00,32.0,26.0,29.92,WSW,244,2.0,8.0,79,0.00,,,0.01,,2013-01-09 12:12:00,
2013-01-09 06:23:00,32.0,26.0,29.92,SW,224,3.0,7.0,77,0.00,,,0.01,,2013-01-09 12:23:00,
2013-01-09 06:33:00,32.0,26.0,29.93,WSW,250,2.0,6.0,77,0.00,,,0.01,,2013-01-09 12:33:00,
2013-01-09 06:43:00,32.0,26.0,29.93,WSW,250,2.0,6.0,77,0.00,,,0.01,,2013-01-09 12:43:00,
2013-01-09 06:52:00,32.0,25.0,29.93,WSW,240,4.0,8.0,76,0.00,,,0.01,,2013-01-09 12:52:00,
2013-01-09 07:02:00,33.0,26.0,29.95,WSW,243,2.0,8.0,74,0.00,,,0.01,,2013-01-09 13:02:00,
2013-01-09 07:12:00,33.0,26.0,29.95,WSW,243,2.0,8.0,74,0.00,,,0.01,,2013-01-09 13:12:00,
2013-01-09 07:22:00,33.0,26.0,29.96,WSW,239,3.0,6.0,74,0.00,,,0.01,,2013-01-09 13:22:00,
2013-01-09 07:33:00,33.0,26.0,29.96,WSW,249,2.0,6.0,74,0.00,,,0.01,,2013-01-09 13:33:00,
2013-01-09 07:42:00,33.0,26.0,29.96,WSW,249,2.0,6.0,74,0.00,,,0.01,,2013-01-09 13:42:00,
2013-01-09 07:52:00,33.0,25.0,29.97,West,271,3.0,6.0,73,0.00,,,0.01,,2013-01-09 13:52:00,
2013-01-09 08:03:00,33.0,25.0,29.98,SW,227,2.0,6.0,73,0.00,,,0.01,,2013-01-09 14:03:00,
2013-01-09 08:12:00,33.0,25.0,29.99,SW,232,2.0,6.0,72,0.00,,,0.01,,2013-01-09 14:12:00,
2013-01-09 08:22:00,33.0,25.0,29.99,SW,232,2.0,6.0,72,0.00,,,0.01,,2013-01-09 14:22:00,
2013-01-09 08:33:00,33.0,25.0,29.99,WSW,253,3.0,7.0,72,0.00,,,0.01,,2013-01-09 14:33:00,
2013-01-09 08:43:00,33.0,25.0,29.99,WSW,253,3.0,7.0,72,0.00,,,0.01,,2013-01-09 14:43:00,
2013-01-09 08:53:00,33.0,25.0,30.00,WSW,249,2.0,6.0,71,0.00,,,0.01,,2013-01-09 14:53:00,
2013-01-09 09:03:00,33.0,24.0,30.01,West,270,2.0,6.0,70,0.00,,,0.01,,2013-01-09 15:03:00,
2013-01-09 09:12:00,33.0,24.0,30.01,West,270,2.0,6.0,70,0.00,,,0.01,,2013-01-09 15:12:00,
2013-01-09 09:22:00,33.0,24.0,30.02,West,260,1.0,3.0,69,0.00,,,0.01,,2013-01-09 15:22:00,
2013-01-09 09:33:00,33.0,24.0,30.03,WSW,252,2.0,5.0,69,0.00,,,0.01,,2013-01-09 15:33:00,
2013-01-09 09:42:00,33.0,24.0,30.03,WSW,252,2.0,5.0,69,0.00,,,0.01,,2013-01-09 15:42:00,
2013-01-09 09:53:00,33.0,23.0,30.04,SW,233,3.0,10.0,67,0.00,,,0.01,,2013-01-09 15:53:00,
2013-01-09 10:03:00,33.0,23.0,30.05,West,275,3.0,7.0,66,0.00,,,0.01,,2013-01-09 16:03:00,
2013-01-09 10:12:00,33.0,23.0,30.05,West,275,3.0,7.0,66,0.00,,,0.01,,2013-01-09 16:12:00,
2013-01-09 10:22:00,33.0,23.0,30.06,WSW,252,2.0,9.0,65,0.00,,,0.01,,2013-01-09 16:22:00,
2013-01-09 10:33:00,33.0,23.0,30.07,SSE,164,3.0,10.0,65,0.00,,,0.01,,2013-01-09 16:33:00,
2013-01-09 10:42:00,33.0,23.0,30.07,SSE,164,3.0,10.0,65,0.00,,,0.01,,2013-01-09 16:42:00,
2013-01-09 10:53:00,33.0,22.0,30.08,WSW,239,3.0,5.0,64,0.00,,,0.01,,2013-01-09 16:53:00,
2013-01-09 11:02:00,33.0,22.0,30.08,West,261,2.0,6.0,63,0.00,,,0.01,,2013-01-09 17:02:00,
2013-01-09 11:12:00,33.0,22.0,30.08,West,261,2.0,6.0,63,0.00,,,0.01,,2013-01-09 17:12:00,
2013-01-09 11:22:00,33.0,22.0,30.09,WSW,249,5.0,9.0,63,0.00,,,0.01,,2013-01-09 17:22:00,
2013-01-09 11:32:00,33.0,22.0,30.09,SW,224,3.0,7.0,63,0.00,,,0.01,,2013-01-09 17:32:00,
2013-01-09 11:43:00,33.0,22.0,30.09,SW,224,3.0,7.0,63,0.00,,,0.01,,2013-01-09 17:43:00,
2013-01-09 11:53:00,34.0,23.0,30.09,West,264,2.0,6.0,63,0.00,,,0.01,,2013-01-09 17:53:00,
2013-01-09 12:03:00,34.0,22.0,30.09,West,260,3.0,7.0,62,0.00,,,0.01,,2013-01-09 18:03:00,
2013-01-09 12:12:00,34.0,22.0,30.09,West,260,3.0,7.0,62,0.00,,,0.01,,2013-01-09 18:12:00,
2013-01-09 12:23:00,34.0,22.0,30.11,SW,230,3.0,5.0,62,0.00,,,0.01,,2013-01-09 18:23:00,
2013-01-09 12:33:00,34.0,22.0,30.12,WSW,255,2.0,5.0,61,0.00,,,0.01,,2013-01-09 18:33:00,
2013-01-09 12:43:00,34.0,22.0,30.12,WSW,255,2.0,5.0,61,0.00,,,0.01,,2013-01-09 18:43:00,
2013-01-09 12:53:00,35.0,22.0,30.14,WSW,252,3.0,7.0,59,0.00,,,0.01,,2013-01-09 18:53:00,
2013-01-09 13:03:00,35.0,22.0,30.15,SW,234,2.0,5.0,59,0.00,,,0.00,,2013-01-09 19:03:00,
2013-01-09 13:12:00,35.0,22.0,30.15,SW,234,2.0,5.0,59,0.00,,,0.00,,2013-01-09 19:12:00,
2013-01-09 13:22:00,35.0,22.0,30.16,WSW,240,3.0,7.0,58,0.00,,,0.00,,2013-01-09 19:22:00,
2013-01-09 13:33:00,36.0,23.0,30.18,SW,214,2.0,7.0,58,0.00,,,0.00,,2013-01-09 19:33:00,
2013-01-09 13:43:00,36.0,23.0,30.18,SW,214,2.0,7.0,58,0.00,,,0.00,,2013-01-09 19:43:00,
2013-01-09 13:52:00,36.0,22.0,30.19,West,259,4.0,12.0,57,0.00,,,0.00,,2013-01-09 19:52:00,
2013-01-09 14:02:00,36.0,22.0,30.20,WSW,256,2.0,7.0,57,0.00,,,0.00,,2013-01-09 20:02:00,
2013-01-09 14:12:00,36.0,22.0,30.20,WSW,256,2.0,7.0,57,0.00,,,0.00,,2013-01-09 20:12:00,
2013-01-09 14:22:00,36.0,22.0,30.22,SW,236,3.0,7.0,56,0.00,,,0.00,,2013-01-09 20:22:00,
2013-01-09 14:33:00,36.0,21.0,30.22,WSW,239,3.0,7.0,55,0.00,,,0.00,,2013-01-09 20:33:00,
2013-01-09 14:42:00,36.0,21.0,30.22,WSW,239,3.0,7.0,55,0.00,,,0.00,,2013-01-09 20:42:00,
2013-01-09 14:52:00,36.0,21.0,30.23,SW,236,2.0,8.0,55,0.00,,,0.00,,2013-01-09 20:52:00,
2013-01-09 15:03:00,36.0,21.0,30.24,WSW,258,3.0,9.0,54,0.00,,,0.00,,2013-01-09 21:03:00,
2013-01-09 15:12:00,36.0,21.0,30.24,WSW,258,3.0,9.0,54,0.00,,,0.00,,2013-01-09 21:12:00,
2013-01-09 15:22:00,36.0,22.0,30.26,WSW,255,2.0,7.0,56,0.00,,,0.00,,2013-01-09 21:22:00,
2013-01-09 15:33:00,35.0,21.0,30.28,WSW,240,3.0,7.0,57,0.00,,,0.00,,2013-01-09 21:33:00,
2013-01-09 15:43:00,35.0,21.0,30.28,WSW,240,3.0,7.0,57,0.00,,,0.00,,2013-01-09 21:43:00,
2013-01-09 15:52:00,35.0,22.0,30.28,WSW,239,2.0,7.0,59,0.00,,,0.00,,2013-01-09 21:52:00,
2013-01-09 16:03:00,34.0,21.0,30.29,SW,227,3.0,10.0,59,0.00,,,0.00,,2013-01-09 22:03:00,
2013-01-09 16:12:00,34.0,21.0,30.29,SW,227,3.0,10.0,59,0.00,,,0.00,,2013-01-09 22:12:00,
2013-01-09 16:22:00,34.0,22.0,30.29,SW,229,2.0,6.0,60,0.00,,,0.00,,2013-01-09 22:22:00,
2013-01-09 16:33:00,34.0,22.0,30.30,WSW,244,2.0,6.0,60,0.00,,,0.00,,2013-01-09 22:33:00,
2013-01-09 16:42:00,34.0,22.0,30.30,WSW,244,2.0,6.0,60,0.00,,,0.00,,2013-01-09 22:42:00,
2013-01-09 16:52:00,33.0,21.0,30.30,SSW,209,1.0,6.0,62,0.00,,,0.00,,2013-01-09 22:52:00,
2013-01-09 17:02:00,33.0,21.0,30.31,SW,217,1.0,3.0,62,0.00,,,0.00,,2013-01-09 23:02:00,
2013-01-09 17:12:00,32.0,21.0,30.32,SW,235,1.0,3.0,64,0.00,,,0.00,,2013-01-09 23:12:00,
2013-01-09 17:22:00,32.0,21.0,30.32,SW,235,1.0,3.0,64,0.00,,,0.00,,2013-01-09 23:22:00,
2013-01-09 17:33:00,32.0,21.0,30.31,SW,236,1.0,3.0,64,0.00,,,0.00,,2013-01-09 23:33:00,
2013-01-09 17:43:00,32.0,21.0,30.31,SW,236,1.0,3.0,64,0.00,,,0.00,,2013-01-09 23:43:00,
2013-01-09 17:52:00,31.0,21.0,30.31,SW,236,0.0,1.0,65,0.00,,,0.00,,2013-01-09 23:52:00,
2013-01-09 18:03:00,31.0,21.0,30.32,SW,236,0.0,0.0,66,0.00,,,0.00,,2013-01-10 00:03:00,
2013-01-09 18:12:00,31.0,21.0,30.32,SW,236,0.0,0.0,66,0.00,,,0.00,,2013-01-10 00:12:00,
2013-01-09 18:22:00,30.0,21.0,30.32,SW,236,0.0,0.0,68,0.00,,,0.00,,2013-01-10 00:22:00,
2013-01-09 18:32:00,29.0,20.0,30.32,SW,236,0.0,2.0,69,0.00,,,0.00,,2013-01-10 00:32:00,
2013-01-09 18:42:00,29.0,20.0,30.32,SW,236,0.0,2.0,69,0.00,,,0.00,,2013-01-10 00:42:00,
2013-01-09 18:52:00,29.0,20.0,30.33,SW,236,0.0,0.0,69,0.00,,,0.00,,2013-01-10 00:52:00,
2013-01-09 19:02:00,28.0,20.0,30.32,SW,236,0.0,0.0,72,0.00,,,0.00,,2013-01-10 01:02:00,
2013-01-09 19:12:00,28.0,20.0,30.32,SW,236,0.0,0.0,72,0.00,,,0.00,,2013-01-10 01:12:00,
2013-01-09 19:22:00,27.0,20.0,30.33,SW,236,0.0,0.0,73,0.00,,,0.00,,2013-01-10 01:22:00,
2013-01-09 19:32:00,27.0,20.0,30.33,SW,236,0.0,0.0,73,0.00,,,0.00,,2013-01-10 01:32:00,
2013-01-09 19:42:00,27.0,20.0,30.33,SW,236,0.0,0.0,73,0.00,,,0.00,,2013-01-10 01:42:00,
2013-01-09 19:52:00,27.0,20.0,30.33,SW,236,0.0,0.0,75,0.00,,,0.00,,2013-01-10 01:52:00,
2013-01-09 20:02:00,27.0,20.0,30.32,SW,236,0.0,0.0,75,0.00,,,0.00,,2013-01-10 02:02:00,
2013-01-09 20:12:00,27.0,20.0,30.32,SW,236,0.0,0.0,75,0.00,,,0.00,,2013-01-10 02:12:00,
2013-01-09 20:22:00,26.0,19.0,30.32,SW,236,0.0,0.0,76,0.00,,,0.00,,2013-01-10 02:22:00,
2013-01-09 20:32:00,26.0,19.0,30.32,SW,236,0.0,0.0,76,0.00,,,0.00,,2013-01-10 02:32:00,
2013-01-09 20:42:00,26.0,19.0,30.32,SW,236,0.0,0.0,76,0.00,,,0.00,,2013-01-10 02:42:00,
2013-01-09 20:52:00,26.0,19.0,30.32,SW,236,0.0,0.0,76,0.00,,,0.00,,2013-01-10 02:52:00,
2013-01-09 21:02:00,25.0,19.0,30.31,SW,236,0.0,0.0,78,0.00,,,0.00,,2013-01-10 03:02:00,
2013-01-09 21:12:00,25.0,19.0,30.31,SW,236,0.0,0.0,78,0.00,,,0.00,,2013-01-10 03:12:00,
2013-01-09 21:22:00,25.0,19.0,30.31,SW,236,0.0,0.0,77,0.00,,,0.00,,2013-01-10 03:22:00,
2013-01-09 21:32:00,24.0,18.0,30.32,SW,236,0.0,0.0,78,0.00,,,0.00,,2013-01-10 03:32:00,
2013-01-09 21:42:00,24.0,18.0,30.32,SW,236,0.0,0.0,78,0.00,,,0.00,,2013-01-10 03:42:00,
2013-01-09 21:52:00,24.0,18.0,30.32,SW,236,0.0,0.0,78,0.00,,,0.00,,2013-01-10 03:52:00,
2013-01-09 22:02:00,23.0,17.0,30.31,SW,236,0.0,0.0,79,0.00,,,0.00,,2013-01-10 04:02:00,
2013-01-09 22:12:00,23.0,17.0,30.31,SW,236,0.0,0.0,79,0.00,,,0.00,,2013-01-10 04:12:00,
2013-01-09 22:22:00,23.0,18.0,30.31,SW,236,0.0,0.0,80,0.00,,,0.00,,2013-01-10 04:22:00,
2013-01-09 22:32:00,23.0,18.0,30.32,SW,236,0.0,0.0,80,0.00,,,0.00,,2013-01-10 04:32:00,
2013-01-09 22:42:00,23.0,18.0,30.32,SW,236,0.0,0.0,80,0.00,,,0.00,,2013-01-10 04:42:00,
2013-01-09 22:52:00,22.0,16.0,30.32,SW,236,0.0,0.0,79,0.00,,,0.00,,2013-01-10 04:52:00,
2013-01-09 23:03:00,22.0,17.0,30.32,SW,236,0.0,0.0,80,0.00,,,0.00,,2013-01-10 05:03:00,
2013-01-09 23:12:00,22.0,17.0,30.32,SW,236,0.0,0.0,80,0.00,,,0.00,,2013-01-10 05:12:00,
2013-01-09 23:22:00,21.0,16.0,30.32,SW,236,0.0,0.0,81,0.00,,,0.00,,2013-01-10 05:22:00,
2013-01-09 23:33:00,21.0,17.0,30.32,SW,236,0.0,0.0,83,0.00,,,0.00,,2013-01-10 05:33:00,
2013-01-09 23:42:00,21.0,17.0,30.32,SW,236,0.0,0.0,83,0.00,,,0.00,,2013-01-10 05:42:00,
2013-01-09 23:52:00,21.0,17.0,30.32,SW,236,0.0,0.0,83,0.00,,,0.00,,2013-01-10 05:52:00,